Location: Newark
(37.4028°N, 22.1369°E)
Time: 16:28:44
(UTC+00:00)

Hubble Space Telescope - Visible Passes

Search period start: 30 September 2020 00:00
Search period end: 10 October 2020 00:00
Orbit: 536 x 540 km, 28.5° (Epoch: 29 September)

Date Brightness Start Highest point End Pass type
(mag) Time Alt. Az. Time Alt. Az. Time Alt. Az.
30 Sep 3.0 02:14:16 17° SE 02:14:16 17° SE 02:15:52 10° ESE visible
30 Sep 2.5 03:50:08 10° WSW 03:53:19 22° S 03:56:31 10° SE visible
01 Oct 3.3 02:04:13 14° SE 02:04:13 14° SE 02:05:08 10° ESE visible
01 Oct 2.5 03:39:33 11° SW 03:42:30 20° S 03:45:34 10° SE visible
02 Oct 3.7 01:54:11 11° SE 01:54:11 11° SE 01:54:22 10° SE visible
02 Oct 2.6 03:29:31 13° SW 03:31:41 19° SSW 03:34:35 10° SSE visible
03 Oct 2.7 03:19:31 15° SW 03:20:51 17° SSW 03:23:30 10° SSE visible
04 Oct 2.8 03:09:34 14° SSW 03:10:00 15° SSW 03:12:19 10° SSE visible
05 Oct 3.0 02:59:39 12° S 02:59:39 12° S 03:00:57 10° S visible
